Track YAOGAN 20A now! 10-day predictions YAOGAN 20A is classified as:
1 40109U 14047A 26259.26004980 .00000134 00000-0 23463-3 0 9992 2 40109 63.3775 144.3126 0398205 15.1820 346.0757 13.45449506594698